Year,Month,Day,Hour,Minute,Value (Times are PST for temperature in C)
2015,05,22,07,34,13.70
2015,05,22,07,35,13.70
2015,05,22,07,36,13.80
2015,05,22,07,37,13.80
2015,05,22,07,38,13.90
2015,05,22,07,39,13.90
2015,05,22,07,40,13.90
2015,05,22,07,41,13.90
2015,05,22,07,42,14.00
2015,05,22,07,43,14.00
2015,05,22,07,44,14.10
2015,05,22,07,45,14.10
2015,05,22,07,46,14.10
2015,05,22,07,47,14.20
2015,05,22,07,48,14.20
2015,05,22,07,49,14.20
2015,05,22,07,50,14.30
2015,05,22,07,51,14.30
2015,05,22,07,52,14.30
2015,05,22,07,53,14.30
2015,05,22,07,54,14.40
2015,05,22,07,55,14.40
2015,05,22,07,56,14.50
2015,05,22,07,57,14.50
2015,05,22,07,58,14.60
2015,05,22,07,59,14.70
2015,05,22,08,00,14.70
2015,05,22,08,01,14.80
2015,05,22,08,02,14.80
2015,05,22,08,03,14.80
2015,05,22,08,04,14.70
2015,05,22,08,05,14.70
2015,05,22,08,06,14.60
2015,05,22,08,07,14.50
2015,05,22,08,08,14.40
2015,05,22,08,09,14.40
2015,05,22,08,10,14.40
2015,05,22,08,11,14.40
2015,05,22,08,12,14.30
2015,05,22,08,13,14.30
2015,05,22,08,14,14.20
2015,05,22,08,15,14.30
2015,05,22,08,16,14.40
2015,05,22,08,17,14.40
2015,05,22,08,18,14.50
2015,05,22,08,19,14.60
2015,05,22,08,20,14.70
2015,05,22,08,21,14.80
2015,05,22,08,22,14.80
2015,05,22,08,23,14.90
2015,05,22,08,24,14.90
2015,05,22,08,25,15.00
2015,05,22,08,26,15.00
2015,05,22,08,27,15.00
2015,05,22,08,28,15.00
2015,05,22,08,29,15.00
2015,05,22,08,30,15.00
2015,05,22,08,31,15.00
2015,05,22,08,32,15.00
2015,05,22,08,33,15.00
2015,05,22,08,34,15.00
2015,05,22,08,35,15.00
2015,05,22,08,36,15.00
2015,05,22,08,37,15.00
2015,05,22,08,38,15.00
2015,05,22,08,39,15.00
2015,05,22,08,40,15.00
2015,05,22,08,41,15.00
2015,05,22,08,42,15.00
2015,05,22,08,43,15.00
2015,05,22,08,44,15.00
2015,05,22,08,45,15.00
2015,05,22,08,46,15.00
2015,05,22,08,47,15.00
2015,05,22,08,48,15.00
2015,05,22,08,49,15.00
2015,05,22,08,50,15.00
2015,05,22,08,51,15.10
2015,05,22,08,52,15.20
2015,05,22,08,53,15.20
2015,05,22,08,54,15.30
2015,05,22,08,55,15.40
2015,05,22,08,56,15.40
2015,05,22,08,57,15.50
2015,05,22,08,58,15.50
2015,05,22,08,59,15.60
2015,05,22,09,00,15.60
2015,05,22,09,01,15.60
2015,05,22,09,02,15.50
2015,05,22,09,03,15.40
2015,05,22,09,04,15.40
2015,05,22,09,05,15.30
2015,05,22,09,06,15.20
2015,05,22,09,07,15.00
2015,05,22,09,08,15.00
2015,05,22,09,09,15.00
2015,05,22,09,10,15.00
2015,05,22,09,11,15.00
2015,05,22,09,12,15.00
2015,05,22,09,13,15.00
2015,05,22,09,14,15.00
2015,05,22,09,15,15.00
2015,05,22,09,16,15.00
2015,05,22,09,17,15.00
2015,05,22,09,18,15.00
2015,05,22,09,19,15.00
2015,05,22,09,20,15.00
2015,05,22,09,21,15.00
2015,05,22,09,22,15.00
2015,05,22,09,23,15.00
2015,05,22,09,24,15.00
2015,05,22,09,25,15.10
2015,05,22,09,26,15.10
2015,05,22,09,27,15.10
2015,05,22,09,28,15.20
2015,05,22,09,29,15.30
2015,05,22,09,30,15.40
2015,05,22,09,31,15.50
2015,05,22,09,32,15.60
2015,05,22,09,33,15.70
2015,05,22,09,34,15.80
2015,05,22,09,35,15.80
2015,05,22,09,36,15.80
2015,05,22,09,37,15.90
2015,05,22,09,38,15.90
2015,05,22,09,39,16.00
2015,05,22,09,40,16.00
2015,05,22,09,41,16.10
2015,05,22,09,42,16.10
2015,05,22,09,43,16.20
2015,05,22,09,44,16.20
2015,05,22,09,45,16.20
2015,05,22,09,46,16.20
2015,05,22,09,47,16.20
2015,05,22,09,48,16.30
2015,05,22,09,49,16.40
2015,05,22,09,50,16.50
2015,05,22,09,51,16.60
2015,05,22,09,52,16.70
2015,05,22,09,53,16.80
2015,05,22,09,54,16.80
2015,05,22,09,55,16.70
2015,05,22,09,56,16.70
2015,05,22,09,57,16.60
2015,05,22,09,58,16.50
2015,05,22,09,59,16.40
2015,05,22,10,00,16.40
2015,05,22,10,01,16.40
2015,05,22,10,02,16.30
2015,05,22,10,03,16.30
2015,05,22,10,04,16.20
2015,05,22,10,05,16.20
2015,05,22,10,06,16.20
2015,05,22,10,07,16.30
2015,05,22,10,08,16.30
2015,05,22,10,09,16.40
2015,05,22,10,10,16.40
2015,05,22,10,11,16.30
2015,05,22,10,12,16.20
2015,05,22,10,13,16.10
2015,05,22,10,14,16.00
2015,05,22,10,15,15.90
2015,05,22,10,16,15.90
2015,05,22,10,17,16.00
2015,05,22,10,18,16.10
2015,05,22,10,19,16.20
2015,05,22,10,20,16.30
2015,05,22,10,21,16.30
2015,05,22,10,22,16.30
2015,05,22,10,23,16.40
2015,05,22,10,24,16.40
2015,05,22,10,25,16.50
2015,05,22,10,26,16.60
2015,05,22,10,27,16.70
2015,05,22,10,28,16.70
2015,05,22,10,29,16.70
2015,05,22,10,30,16.70
2015,05,22,10,31,16.80
2015,05,22,10,32,16.70
2015,05,22,10,33,16.60
2015,05,22,10,34,16.60
2015,05,22,10,35,16.60
2015,05,22,10,36,16.70
2015,05,22,10,37,16.70
2015,05,22,10,38,16.60
2015,05,22,10,39,16.60
2015,05,22,10,40,16.60
2015,05,22,10,41,16.70
2015,05,22,10,42,16.70
2015,05,22,10,43,16.80
2015,05,22,10,44,16.90
2015,05,22,10,45,17.10
2015,05,22,10,46,17.30
2015,05,22,10,47,17.50
2015,05,22,10,48,17.60
2015,05,22,10,49,17.70
2015,05,22,10,50,17.80
2015,05,22,10,51,17.90
2015,05,22,10,52,17.90
2015,05,22,10,53,18.00
2015,05,22,10,54,18.00
2015,05,22,10,55,18.00
2015,05,22,10,56,17.90
2015,05,22,10,57,17.80
2015,05,22,10,58,17.70
2015,05,22,10,59,17.60
2015,05,22,11,00,17.50
2015,05,22,11,01,17.40
2015,05,22,11,02,17.30
2015,05,22,11,03,17.30
2015,05,22,11,04,17.30
2015,05,22,11,05,17.30
2015,05,22,11,06,17.30
2015,05,22,11,07,17.20
2015,05,22,11,08,17.20
2015,05,22,11,09,17.20
2015,05,22,11,10,17.20
2015,05,22,11,11,17.20
2015,05,22,11,12,17.30
2015,05,22,11,13,17.40
2015,05,22,11,14,17.40
2015,05,22,11,15,17.50
2015,05,22,11,16,17.50
2015,05,22,11,17,17.40
2015,05,22,11,18,17.50
2015,05,22,11,19,17.40
2015,05,22,11,20,17.40
2015,05,22,11,21,17.40
2015,05,22,11,22,17.50
2015,05,22,11,23,17.50
2015,05,22,11,24,17.60
2015,05,22,11,25,17.60
2015,05,22,11,26,17.50
2015,05,22,11,27,17.40
2015,05,22,11,28,17.30
2015,05,22,11,29,17.20
2015,05,22,11,30,17.20
2015,05,22,11,31,17.10
2015,05,22,11,32,17.20
2015,05,22,11,33,17.20
2015,05,22,11,34,17.20
2015,05,22,11,35,17.20
2015,05,22,11,36,17.20
2015,05,22,11,37,17.20
2015,05,22,11,38,17.20
2015,05,22,11,39,17.30
2015,05,22,11,40,17.20
2015,05,22,11,41,17.20
2015,05,22,11,42,17.20
2015,05,22,11,43,17.20
2015,05,22,11,44,17.20
2015,05,22,11,45,17.20
2015,05,22,11,46,17.30
2015,05,22,11,47,17.30
2015,05,22,11,48,17.30
2015,05,22,11,49,17.40
2015,05,22,11,50,17.50
2015,05,22,11,51,17.50
2015,05,22,11,52,17.50
2015,05,22,11,53,17.50
2015,05,22,11,54,17.60
2015,05,22,11,55,17.50
2015,05,22,11,56,17.40
2015,05,22,11,57,17.30
2015,05,22,11,58,17.30
2015,05,22,11,59,17.20
2015,05,22,12,00,17.20
2015,05,22,12,01,17.10
2015,05,22,12,02,17.10
2015,05,22,12,03,17.10
2015,05,22,12,04,17.10
2015,05,22,12,05,17.10
2015,05,22,12,06,17.10
2015,05,22,12,07,17.10
2015,05,22,12,08,17.10
2015,05,22,12,09,17.10
2015,05,22,12,10,17.10
2015,05,22,12,11,17.00
2015,05,22,12,12,17.00
2015,05,22,12,13,17.00
2015,05,22,12,14,17.00
2015,05,22,12,15,17.00
2015,05,22,12,16,17.00
2015,05,22,12,17,16.90
2015,05,22,12,18,16.90
2015,05,22,12,19,16.80
2015,05,22,12,20,16.70
2015,05,22,12,21,16.70
2015,05,22,12,22,16.70
2015,05,22,12,23,16.70
2015,05,22,12,24,16.70
2015,05,22,12,25,16.80
2015,05,22,12,26,16.80
2015,05,22,12,27,16.70
2015,05,22,12,28,16.80
2015,05,22,12,29,16.90
2015,05,22,12,30,17.00
2015,05,22,12,31,17.10
2015,05,22,12,32,17.10
2015,05,22,12,33,17.20
2015,05,22,12,34,17.20
2015,05,22,12,35,17.20
2015,05,22,12,36,17.30
2015,05,22,12,37,17.30
2015,05,22,12,38,17.40
2015,05,22,12,39,17.30
2015,05,22,12,40,17.30
2015,05,22,12,41,17.30
2015,05,22,12,42,17.30
2015,05,22,12,43,17.20
2015,05,22,12,44,17.10
2015,05,22,12,45,17.20
2015,05,22,12,46,17.20
2015,05,22,12,47,17.20
2015,05,22,12,48,17.20
2015,05,22,12,49,17.20
2015,05,22,12,50,17.30
2015,05,22,12,51,17.30
2015,05,22,12,52,17.30
2015,05,22,12,53,17.30
2015,05,22,12,54,17.20
2015,05,22,12,55,17.10
2015,05,22,12,56,17.10
2015,05,22,12,57,17.10
2015,05,22,12,58,17.10
2015,05,22,12,59,17.10
2015,05,22,13,00,17.10
2015,05,22,13,01,17.20
2015,05,22,13,02,17.10
2015,05,22,13,03,17.10
2015,05,22,13,04,17.00
2015,05,22,13,05,16.90
2015,05,22,13,06,16.90
2015,05,22,13,07,16.90
2015,05,22,13,08,16.90
2015,05,22,13,09,16.90
2015,05,22,13,10,16.90
2015,05,22,13,11,16.90
2015,05,22,13,12,17.00
2015,05,22,13,13,17.00
2015,05,22,13,14,16.90
2015,05,22,13,15,16.90
2015,05,22,13,16,16.90
2015,05,22,13,17,16.90
2015,05,22,13,18,16.90
2015,05,22,13,19,16.80
2015,05,22,13,20,16.80
2015,05,22,13,21,16.80
2015,05,22,13,22,16.80
2015,05,22,13,23,16.80
2015,05,22,13,24,16.80
2015,05,22,13,25,16.70
2015,05,22,13,26,16.60
2015,05,22,13,27,16.60
2015,05,22,13,28,16.60
2015,05,22,13,29,16.50
2015,05,22,13,30,16.60
2015,05,22,13,31,16.60
2015,05,22,13,32,16.60
2015,05,22,13,33,16.60
2015,05,22,13,34,16.60
2015,05,22,13,35,16.60
2015,05,22,13,36,16.60
2015,05,22,13,37,16.60
2015,05,22,13,38,16.60
2015,05,22,13,39,16.60
2015,05,22,13,40,16.50
2015,05,22,13,41,16.50
2015,05,22,13,42,16.40
2015,05,22,13,43,16.50
2015,05,22,13,44,16.50
2015,05,22,13,45,16.60
2015,05,22,13,46,16.60
2015,05,22,13,47,16.70
2015,05,22,13,48,16.70
2015,05,22,13,49,16.70
2015,05,22,13,50,16.70
2015,05,22,13,51,16.70
2015,05,22,13,52,16.80
2015,05,22,13,53,16.80
2015,05,22,13,54,16.80
2015,05,22,13,55,16.80
2015,05,22,13,56,16.80
2015,05,22,13,57,16.90
2015,05,22,13,58,16.90
2015,05,22,13,59,16.90
2015,05,22,14,00,17.00
2015,05,22,14,01,17.00
2015,05,22,14,02,17.00
2015,05,22,14,03,17.00
2015,05,22,14,04,17.10
2015,05,22,14,05,17.10
2015,05,22,14,06,17.00
2015,05,22,14,07,17.00
2015,05,22,14,08,17.00
2015,05,22,14,09,16.90
2015,05,22,14,10,16.90
2015,05,22,14,11,16.80
2015,05,22,14,12,16.80
2015,05,22,14,13,16.80
2015,05,22,14,14,16.80
2015,05,22,14,15,16.80
2015,05,22,14,16,16.90
2015,05,22,14,17,16.90
2015,05,22,14,18,17.00
2015,05,22,14,19,17.00
2015,05,22,14,20,17.00
2015,05,22,14,21,17.10
2015,05,22,14,22,17.10
2015,05,22,14,23,17.20
2015,05,22,14,24,17.20
2015,05,22,14,25,17.30
2015,05,22,14,26,17.30
2015,05,22,14,27,17.40
2015,05,22,14,28,17.60
2015,05,22,14,29,17.70
2015,05,22,14,30,17.80
2015,05,22,14,31,17.80
2015,05,22,14,32,17.80
2015,05,22,14,33,17.80
2015,05,22,14,34,17.80
2015,05,22,14,35,17.80
2015,05,22,14,36,17.90
2015,05,22,14,37,18.00
2015,05,22,14,38,18.00
2015,05,22,14,39,18.00
2015,05,22,14,40,18.10
2015,05,22,14,41,18.10
2015,05,22,14,42,18.20
2015,05,22,14,43,18.20
2015,05,22,14,44,18.20
2015,05,22,14,45,18.10
2015,05,22,14,46,18.10
2015,05,22,14,47,18.10
2015,05,22,14,48,18.10
2015,05,22,14,49,18.00
2015,05,22,14,50,17.90
2015,05,22,14,51,17.90
2015,05,22,14,52,17.90
2015,05,22,14,53,17.80
2015,05,22,14,54,17.80
2015,05,22,14,55,17.80
2015,05,22,14,56,17.80
2015,05,22,14,57,17.90
2015,05,22,14,58,17.90
2015,05,22,14,59,17.80
2015,05,22,15,00,17.80
2015,05,22,15,01,17.70
2015,05,22,15,02,17.70
2015,05,22,15,03,17.60
2015,05,22,15,04,17.60
2015,05,22,15,05,17.60
2015,05,22,15,06,17.60
2015,05,22,15,07,17.60
2015,05,22,15,08,17.60
2015,05,22,15,09,17.50
2015,05,22,15,10,17.50
2015,05,22,15,11,17.40
2015,05,22,15,12,17.40
2015,05,22,15,13,17.40
2015,05,22,15,14,17.50
2015,05,22,15,15,17.60
2015,05,22,15,16,17.60
2015,05,22,15,17,17.70
2015,05,22,15,18,17.80
2015,05,22,15,19,17.90
2015,05,22,15,20,17.90
2015,05,22,15,21,18.00
2015,05,22,15,22,18.00
2015,05,22,15,23,18.20
2015,05,22,15,24,18.30
2015,05,22,15,25,18.40
2015,05,22,15,26,18.60
2015,05,22,15,27,18.70
2015,05,22,15,28,18.70
2015,05,22,15,29,18.70
2015,05,22,15,30,18.60
2015,05,22,15,31,18.60
2015,05,22,15,32,18.60
2015,05,22,15,33,18.70
2015,05,22,15,34,18.80
2015,05,22,15,35,18.70
2015,05,22,15,36,18.70
2015,05,22,15,37,18.80
2015,05,22,15,38,18.80
2015,05,22,15,39,18.80
2015,05,22,15,40,18.70
2015,05,22,15,41,18.70
2015,05,22,15,42,18.70
2015,05,22,15,43,18.70
2015,05,22,15,44,18.60
2015,05,22,15,45,18.60
2015,05,22,15,46,18.70
2015,05,22,15,47,18.80
2015,05,22,15,48,18.90
2015,05,22,15,49,18.90
2015,05,22,15,50,18.90
2015,05,22,15,51,18.80
2015,05,22,15,52,18.80
2015,05,22,15,53,18.70
2015,05,22,15,54,18.70
2015,05,22,15,55,18.60
2015,05,22,15,56,18.60
2015,05,22,15,57,18.50
2015,05,22,15,58,18.40
2015,05,22,15,59,18.40
2015,05,22,16,00,18.40
2015,05,22,16,01,18.30
2015,05,22,16,02,18.40
2015,05,22,16,03,18.40
2015,05,22,16,04,18.40
2015,05,22,16,05,18.50
2015,05,22,16,06,18.60
2015,05,22,16,07,18.70
2015,05,22,16,08,18.70
2015,05,22,16,09,18.90
2015,05,22,16,10,18.90
2015,05,22,16,11,18.90
2015,05,22,16,12,18.90
2015,05,22,16,13,18.90
2015,05,22,16,14,18.90
2015,05,22,16,15,19.00
2015,05,22,16,16,19.10
2015,05,22,16,17,19.20
2015,05,22,16,18,19.20
2015,05,22,16,19,19.10
2015,05,22,16,20,19.10
2015,05,22,16,21,19.00
2015,05,22,16,22,19.10
2015,05,22,16,23,19.20
2015,05,22,16,24,19.30
2015,05,22,16,25,19.30
2015,05,22,16,26,19.30
2015,05,22,16,27,19.30
2015,05,22,16,28,19.20
2015,05,22,16,29,19.10
2015,05,22,16,30,19.00
2015,05,22,16,31,18.90
2015,05,22,16,32,18.90
2015,05,22,16,33,18.80
2015,05,22,16,34,18.80
2015,05,22,16,35,18.70
2015,05,22,16,36,18.60
2015,05,22,16,37,18.40
2015,05,22,16,38,18.30
2015,05,22,16,39,18.30
2015,05,22,16,40,18.20
2015,05,22,16,41,18.20
2015,05,22,16,42,18.10
2015,05,22,16,43,18.10
2015,05,22,16,44,18.10
2015,05,22,16,45,18.10
2015,05,22,16,46,18.10
2015,05,22,16,47,18.20
2015,05,22,16,48,18.20
2015,05,22,16,49,18.20
2015,05,22,16,50,18.20
2015,05,22,16,51,18.20
2015,05,22,16,52,18.20
2015,05,22,16,53,18.20
2015,05,22,16,54,18.20
2015,05,22,16,55,18.30
2015,05,22,16,56,18.20
2015,05,22,16,57,18.00
2015,05,22,16,58,17.80
2015,05,22,16,59,17.80
2015,05,22,17,00,17.70
2015,05,22,17,01,17.70
2015,05,22,17,02,17.70
2015,05,22,17,03,17.70
2015,05,22,17,04,17.80
2015,05,22,17,05,17.70
2015,05,22,17,06,17.70
2015,05,22,17,07,17.80
2015,05,22,17,08,17.80
2015,05,22,17,09,17.80
2015,05,22,17,10,17.80
2015,05,22,17,11,17.90
2015,05,22,17,12,17.80
2015,05,22,17,13,17.70
2015,05,22,17,14,17.70
2015,05,22,17,15,17.60
2015,05,22,17,16,17.60
2015,05,22,17,17,17.60
2015,05,22,17,18,17.60
2015,05,22,17,19,17.60
2015,05,22,17,20,17.60
2015,05,22,17,21,17.50
2015,05,22,17,22,17.50
2015,05,22,17,23,17.40
2015,05,22,17,24,17.50
2015,05,22,17,25,17.50
2015,05,22,17,26,17.50
2015,05,22,17,27,17.50
2015,05,22,17,28,17.50
2015,05,22,17,29,17.60
2015,05,22,17,30,17.60
2015,05,22,17,31,17.60
2015,05,22,17,32,17.50
2015,05,22,17,33,17.50
2015,05,22,17,34,17.40
2015,05,22,17,35,17.40
2015,05,22,17,36,17.30
2015,05,22,17,37,17.30
2015,05,22,17,38,17.30
2015,05,22,17,39,17.20
2015,05,22,17,40,17.20
2015,05,22,17,41,17.10
2015,05,22,17,42,17.10
2015,05,22,17,43,17.10
2015,05,22,17,44,17.10
2015,05,22,17,45,17.10
2015,05,22,17,46,17.10
2015,05,22,17,47,17.10
2015,05,22,17,48,17.10
2015,05,22,17,49,17.10
2015,05,22,17,50,17.20
2015,05,22,17,51,17.20
2015,05,22,17,52,17.20
2015,05,22,17,53,17.20
2015,05,22,17,54,17.20
2015,05,22,17,55,17.30
2015,05,22,17,56,17.30
2015,05,22,17,57,17.30
2015,05,22,17,58,17.30
2015,05,22,17,59,17.30
2015,05,22,18,00,17.20
2015,05,22,18,01,17.20
2015,05,22,18,02,17.20
2015,05,22,18,03,17.10
2015,05,22,18,04,17.10
2015,05,22,18,05,17.10
2015,05,22,18,06,17.10
2015,05,22,18,07,17.20
2015,05,22,18,08,17.10
2015,05,22,18,09,17.10
2015,05,22,18,10,17.00
2015,05,22,18,11,17.00
2015,05,22,18,12,16.90
2015,05,22,18,13,16.90
2015,05,22,18,14,16.90
2015,05,22,18,15,16.90
2015,05,22,18,16,16.90
2015,05,22,18,17,16.90
2015,05,22,18,18,16.90
2015,05,22,18,19,17.00
2015,05,22,18,20,17.00
2015,05,22,18,21,17.00
2015,05,22,18,22,17.00
2015,05,22,18,23,17.10
2015,05,22,18,24,17.20
2015,05,22,18,25,17.20
2015,05,22,18,26,17.30
2015,05,22,18,27,17.40
2015,05,22,18,28,17.40
2015,05,22,18,29,17.50
2015,05,22,18,30,17.60
2015,05,22,18,31,17.70
2015,05,22,18,32,17.70
2015,05,22,18,33,17.80
2015,05,22,18,34,17.80
2015,05,22,18,35,17.80
2015,05,22,18,36,17.80
2015,05,22,18,37,17.70
2015,05,22,18,38,17.60
2015,05,22,18,39,17.60
2015,05,22,18,40,17.50
2015,05,22,18,41,17.40
2015,05,22,18,42,17.30
2015,05,22,18,43,17.20
2015,05,22,18,44,17.10
2015,05,22,18,45,17.00
2015,05,22,18,46,17.00
2015,05,22,18,47,16.90
2015,05,22,18,48,16.80
2015,05,22,18,49,16.80
2015,05,22,18,50,16.70
2015,05,22,18,51,16.70
2015,05,22,18,52,16.60
2015,05,22,18,53,16.60
2015,05,22,18,54,16.50
2015,05,22,18,55,16.50
2015,05,22,18,56,16.40
2015,05,22,18,57,16.40
2015,05,22,18,58,16.30
2015,05,22,18,59,16.30
2015,05,22,19,00,16.30
2015,05,22,19,01,16.30
2015,05,22,19,02,16.30
2015,05,22,19,03,16.30
2015,05,22,19,04,16.30
2015,05,22,19,05,16.30
2015,05,22,19,06,16.30
2015,05,22,19,07,16.30
2015,05,22,19,08,16.30
2015,05,22,19,09,16.20
2015,05,22,19,10,16.20
2015,05,22,19,11,16.20
2015,05,22,19,12,16.20
2015,05,22,19,13,16.20
2015,05,22,19,14,16.20
2015,05,22,19,15,16.20
2015,05,22,19,16,16.20
2015,05,22,19,17,16.20
2015,05,22,19,18,16.20
2015,05,22,19,19,16.20
2015,05,22,19,20,16.20
2015,05,22,19,21,16.20
2015,05,22,19,22,16.20
2015,05,22,19,23,16.20
2015,05,22,19,24,16.20
2015,05,22,19,25,16.20
2015,05,22,19,26,16.20
